Time,TemperatureF,DewpointF,PressureIn,WindDirection,WindDirectionDegrees,WindSpeedMPH,WindSpeedGustMPH,Humidity,HourlyPrecipIn,Conditions,Clouds,dailyrainin,SoftwareType,DateUTC
2013-02-18 00:01:00,30.0,26.0,29.65,South,172,0.0,9.0,85,0.00,,,0.00,,2013-02-18 05:01:00,
2013-02-18 00:11:00,30.0,26.0,29.65,South,172,0.0,9.0,85,0.00,,,0.00,,2013-02-18 05:11:00,
2013-02-18 00:21:00,30.0,26.0,29.65,SSW,208,0.0,6.0,85,0.00,,,0.00,,2013-02-18 05:21:00,
2013-02-18 00:31:00,30.0,26.0,29.63,SSW,199,0.0,13.0,85,0.00,,,0.00,,2013-02-18 05:31:00,
2013-02-18 00:41:00,30.0,26.0,29.63,SSW,199,0.0,13.0,85,0.00,,,0.00,,2013-02-18 05:41:00,
2013-02-18 00:52:00,30.0,26.0,29.62,SW,230,4.0,10.0,85,0.00,,,0.00,,2013-02-18 05:52:00,
2013-02-18 01:02:00,30.0,26.0,29.61,SE,127,0.0,0.0,85,0.00,,,0.00,,2013-02-18 06:02:00,
2013-02-18 01:11:00,30.0,26.0,29.61,South,170,0.0,8.0,84,0.00,,,0.00,,2013-02-18 06:11:00,
2013-02-18 01:21:00,30.0,26.0,29.61,South,170,0.0,8.0,84,0.00,,,0.00,,2013-02-18 06:21:00,
2013-02-18 01:32:00,30.0,26.0,29.60,SSW,212,3.0,6.0,85,0.00,,,0.00,,2013-02-18 06:32:00,
2013-02-18 01:41:00,30.0,26.0,29.60,SW,219,2.0,7.0,85,0.00,,,0.00,,2013-02-18 06:41:00,
2013-02-18 01:52:00,30.0,26.0,29.60,SW,219,2.0,7.0,85,0.00,,,0.00,,2013-02-18 06:52:00,
2013-02-18 02:01:00,30.0,26.0,29.59,SSW,203,0.0,0.0,85,0.00,,,0.00,,2013-02-18 07:01:00,
2013-02-18 02:11:00,30.0,26.0,29.59,SSW,203,0.0,0.0,85,0.00,,,0.00,,2013-02-18 07:11:00,
2013-02-18 02:21:00,29.0,25.0,29.59,SE,125,0.0,0.0,86,0.00,,,0.00,,2013-02-18 07:21:00,
2013-02-18 02:32:00,29.0,26.0,29.58,SSW,208,3.0,5.0,87,0.00,,,0.00,,2013-02-18 07:32:00,
2013-02-18 02:42:00,29.0,26.0,29.58,SSW,208,3.0,5.0,87,0.00,,,0.00,,2013-02-18 07:42:00,
2013-02-18 02:52:00,29.0,26.0,29.57,SSW,212,4.0,4.0,87,0.00,,,0.00,,2013-02-18 07:52:00,
2013-02-18 03:01:00,29.0,26.0,29.57,SSW,208,0.0,0.0,87,0.00,,,0.00,,2013-02-18 08:01:00,
2013-02-18 03:11:00,29.0,26.0,29.56,SSW,208,0.0,0.0,87,0.00,,,0.00,,2013-02-18 08:11:00,
2013-02-18 03:21:00,29.0,26.0,29.56,SSW,208,0.0,0.0,87,0.00,,,0.00,,2013-02-18 08:21:00,
2013-02-18 03:32:00,29.0,26.0,29.56,SSW,208,0.0,0.0,88,0.00,,,0.00,,2013-02-18 08:32:00,
2013-02-18 03:42:00,29.0,26.0,29.56,SSW,208,0.0,0.0,88,0.00,,,0.00,,2013-02-18 08:42:00,
2013-02-18 03:52:00,29.0,26.0,29.55,SSW,208,0.0,0.0,89,0.00,,,0.00,,2013-02-18 08:52:00,
2013-02-18 04:02:00,30.0,27.0,29.55,West,261,0.0,3.0,87,0.00,,,0.00,,2013-02-18 09:02:00,
2013-02-18 04:11:00,30.0,27.0,29.55,West,261,0.0,3.0,87,0.00,,,0.00,,2013-02-18 09:11:00,
2013-02-18 04:22:00,30.0,26.0,29.55,WSW,247,0.0,0.0,86,0.00,,,0.00,,2013-02-18 09:22:00,
2013-02-18 04:31:00,30.0,27.0,29.55,West,281,2.0,7.0,87,0.00,,,0.00,,2013-02-18 09:31:00,
2013-02-18 04:41:00,30.0,27.0,29.55,West,281,2.0,7.0,87,0.00,,,0.00,,2013-02-18 09:41:00,
2013-02-18 04:52:00,30.0,27.0,29.54,WSW,241,5.0,6.0,87,0.00,,,0.00,,2013-02-18 09:52:00,
2013-02-18 05:01:00,31.0,28.0,29.53,SW,230,0.0,6.0,87,0.00,,,0.00,,2013-02-18 10:01:00,
2013-02-18 05:11:00,31.0,28.0,29.53,SW,230,0.0,6.0,87,0.00,,,0.00,,2013-02-18 10:11:00,
2013-02-18 05:21:00,30.0,27.0,29.53,SW,215,0.0,0.0,88,0.00,,,0.00,,2013-02-18 10:21:00,
2013-02-18 05:31:00,30.0,27.0,29.52,SW,215,0.0,0.0,88,0.00,,,0.00,,2013-02-18 10:31:00,
2013-02-18 05:42:00,30.0,27.0,29.52,SW,215,0.0,0.0,88,0.00,,,0.00,,2013-02-18 10:42:00,
2013-02-18 05:53:00,30.0,27.0,29.53,SW,215,0.0,0.0,89,0.00,,,0.00,,2013-02-18 10:53:00,
2013-02-18 06:01:00,30.0,27.0,29.53,West,277,0.0,0.0,89,0.00,,,0.00,,2013-02-18 11:01:00,
2013-02-18 06:11:00,30.0,27.0,29.53,West,277,0.0,0.0,89,0.00,,,0.00,,2013-02-18 11:11:00,
2013-02-18 06:22:00,31.0,28.0,29.53,West,267,3.0,4.0,89,0.00,,,0.00,,2013-02-18 11:22:00,
2013-02-18 06:32:00,31.0,28.0,29.52,WSW,246,0.0,3.0,90,0.00,,,0.00,,2013-02-18 11:32:00,
2013-02-18 06:42:00,31.0,28.0,29.52,WSW,246,0.0,3.0,90,0.00,,,0.00,,2013-02-18 11:42:00,
2013-02-18 06:53:00,31.0,29.0,29.50,WSW,254,2.0,7.0,91,0.00,,,0.00,,2013-02-18 11:53:00,
2013-02-18 07:02:00,30.0,28.0,29.50,WSW,258,0.0,0.0,92,0.00,,,0.00,,2013-02-18 12:02:00,
2013-02-18 07:11:00,30.0,28.0,29.50,WSW,258,0.0,0.0,92,0.00,,,0.00,,2013-02-18 12:11:00,
2013-02-18 07:22:00,30.0,28.0,29.51,West,272,0.0,0.0,93,0.00,,,0.00,,2013-02-18 12:22:00,
2013-02-18 07:32:00,30.0,28.0,29.51,NW,310,4.0,6.0,94,0.00,,,0.00,,2013-02-18 12:32:00,
2013-02-18 07:42:00,30.0,28.0,29.51,NW,310,4.0,6.0,94,0.00,,,0.00,,2013-02-18 12:42:00,
2013-02-18 07:53:00,30.0,29.0,29.51,West,274,0.0,5.0,96,0.00,,,0.00,,2013-02-18 12:53:00,
2013-02-18 08:02:00,30.0,29.0,29.51,WNW,293,0.0,6.0,96,0.00,,,0.00,,2013-02-18 13:02:00,
2013-02-18 08:12:00,30.0,29.0,29.51,WNW,293,0.0,6.0,96,0.00,,,0.00,,2013-02-18 13:12:00,
2013-02-18 08:22:00,30.0,29.0,29.51,WNW,291,0.0,0.0,97,0.00,,,0.00,,2013-02-18 13:22:00,
2013-02-18 08:32:00,30.0,29.0,29.51,WNW,299,0.0,2.0,98,0.00,,,0.00,,2013-02-18 13:32:00,
2013-02-18 08:42:00,30.0,29.0,29.51,WNW,299,0.0,2.0,98,0.00,,,0.00,,2013-02-18 13:42:00,
2013-02-18 08:53:00,29.0,29.0,29.52,WNW,296,0.0,3.0,99,0.00,,,0.00,,2013-02-18 13:53:00,
2013-02-18 09:02:00,30.0,30.0,29.53,NW,315,0.0,6.0,99,0.00,,,0.00,,2013-02-18 14:02:00,
2013-02-18 09:11:00,30.0,30.0,29.53,NW,315,0.0,6.0,99,0.00,,,0.00,,2013-02-18 14:11:00,
2013-02-18 09:22:00,30.0,30.0,29.54,West,272,4.0,7.0,99,0.00,,,0.00,,2013-02-18 14:22:00,
2013-02-18 09:32:00,30.0,30.0,29.55,NW,316,4.0,5.0,99,0.00,,,0.00,,2013-02-18 14:32:00,
2013-02-18 09:41:00,30.0,30.0,29.55,NW,316,4.0,5.0,99,0.00,,,0.00,,2013-02-18 14:41:00,
2013-02-18 09:53:00,30.0,30.0,29.54,WNW,292,2.0,5.0,99,0.00,,,0.00,,2013-02-18 14:53:00,
2013-02-18 10:02:00,30.0,30.0,29.55,NW,319,5.0,7.0,99,0.00,,,0.00,,2013-02-18 15:02:00,
2013-02-18 10:11:00,30.0,30.0,29.55,NW,319,5.0,7.0,99,0.00,,,0.00,,2013-02-18 15:11:00,
2013-02-18 10:22:00,30.0,29.0,29.55,WNW,299,0.0,7.0,98,0.00,,,0.00,,2013-02-18 15:22:00,
2013-02-18 10:32:00,30.0,29.0,29.55,NW,313,5.0,6.0,97,0.00,,,0.00,,2013-02-18 15:32:00,
2013-02-18 10:42:00,30.0,29.0,29.55,NW,313,5.0,6.0,97,0.00,,,0.00,,2013-02-18 15:42:00,
2013-02-18 10:52:00,31.0,30.0,29.55,NW,307,4.0,8.0,97,0.00,,,0.00,,2013-02-18 15:52:00,
2013-02-18 11:02:00,31.0,30.0,29.56,NW,309,4.0,9.0,96,0.00,,,0.00,,2013-02-18 16:02:00,
2013-02-18 11:12:00,31.0,30.0,29.56,NW,309,4.0,9.0,96,0.00,,,0.00,,2013-02-18 16:12:00,
2013-02-18 11:22:00,31.0,30.0,29.55,NNW,336,2.0,2.0,97,0.00,,,0.00,,2013-02-18 16:22:00,
2013-02-18 11:32:00,31.0,31.0,29.56,NNW,329,4.0,7.0,99,0.00,,,0.00,,2013-02-18 16:32:00,
2013-02-18 11:42:00,31.0,31.0,29.56,NNW,329,4.0,7.0,99,0.00,,,0.00,,2013-02-18 16:42:00,
2013-02-18 11:53:00,31.0,31.0,29.56,NNW,329,0.0,7.0,99,0.00,,,0.00,,2013-02-18 16:53:00,
2013-02-18 12:03:00,32.0,32.0,29.57,WNW,293,0.0,9.0,99,0.00,,,0.00,,2013-02-18 17:03:00,
2013-02-18 12:12:00,32.0,32.0,29.57,WNW,293,0.0,9.0,99,0.00,,,0.00,,2013-02-18 17:12:00,
2013-02-18 12:22:00,32.0,32.0,29.57,North,358,5.0,10.0,99,0.00,,,0.00,,2013-02-18 17:22:00,
2013-02-18 12:32:00,30.0,28.0,29.59,North,2,6.0,17.0,94,0.00,,,0.00,,2013-02-18 17:32:00,
2013-02-18 12:42:00,30.0,28.0,29.59,North,2,6.0,17.0,94,0.00,,,0.00,,2013-02-18 17:42:00,
2013-02-18 12:53:00,29.0,27.0,29.59,NNE,21,4.0,13.0,92,0.00,,,0.00,,2013-02-18 17:53:00,
2013-02-18 13:02:00,28.0,26.0,29.59,NNW,348,12.0,14.0,92,0.00,,,0.00,,2013-02-18 18:02:00,
2013-02-18 13:12:00,28.0,26.0,29.59,NNW,348,12.0,14.0,92,0.00,,,0.00,,2013-02-18 18:12:00,
2013-02-18 13:22:00,28.0,25.0,29.60,NNW,334,7.0,18.0,90,0.00,,,0.00,,2013-02-18 18:22:00,
2013-02-18 13:32:00,27.0,24.0,29.60,North,1,5.0,17.0,90,0.00,,,0.00,,2013-02-18 18:32:00,
2013-02-18 13:42:00,27.0,24.0,29.60,North,1,5.0,17.0,90,0.00,,,0.00,,2013-02-18 18:42:00,
2013-02-18 13:53:00,27.0,24.0,29.59,North,357,8.0,19.0,88,0.00,,,0.00,,2013-02-18 18:53:00,
2013-02-18 14:02:00,27.0,24.0,29.59,North,7,10.0,21.0,88,0.00,,,0.00,,2013-02-18 19:02:00,
2013-02-18 14:12:00,27.0,24.0,29.59,North,7,10.0,21.0,88,0.00,,,0.00,,2013-02-18 19:12:00,
2013-02-18 14:22:00,25.0,22.0,29.60,North,351,4.0,8.0,88,0.00,,,0.00,,2013-02-18 19:22:00,
2013-02-18 14:33:00,24.0,21.0,29.60,NNW,333,2.0,14.0,88,0.00,,,0.00,,2013-02-18 19:33:00,
2013-02-18 14:42:00,24.0,21.0,29.60,NNW,333,2.0,14.0,88,0.00,,,0.00,,2013-02-18 19:42:00,
2013-02-18 14:53:00,23.0,20.0,29.62,NNW,341,4.0,13.0,88,0.00,,,0.00,,2013-02-18 19:53:00,
2013-02-18 15:02:00,23.0,20.0,29.62,North,5,8.0,9.0,88,0.00,,,0.00,,2013-02-18 20:02:00,
2013-02-18 15:12:00,23.0,20.0,29.62,North,5,8.0,9.0,88,0.00,,,0.00,,2013-02-18 20:12:00,
2013-02-18 15:33:00,21.0,17.0,29.65,NNW,336,3.0,13.0,86,0.00,,,0.00,,2013-02-18 20:33:00,
2013-02-18 15:42:00,21.0,17.0,29.65,NNW,336,3.0,13.0,86,0.00,,,0.00,,2013-02-18 20:42:00,
2013-02-18 15:52:00,20.0,16.0,29.65,WNW,286,14.0,20.0,86,0.00,,,0.00,,2013-02-18 20:52:00,
2013-02-18 16:03:00,20.0,16.0,29.66,WNW,303,7.0,13.0,86,0.00,,,0.00,,2013-02-18 21:03:00,
2013-02-18 16:22:00,19.0,16.0,29.67,NW,320,9.0,16.0,86,0.00,,,0.00,,2013-02-18 21:22:00,
2013-02-18 16:32:00,19.0,16.0,29.68,NNW,347,6.0,14.0,87,0.00,,,0.00,,2013-02-18 21:32:00,
2013-02-18 16:42:00,19.0,16.0,29.68,NNW,347,6.0,14.0,87,0.00,,,0.00,,2013-02-18 21:42:00,
2013-02-18 16:53:00,18.0,14.0,29.68,North,11,8.0,20.0,85,0.00,,,0.00,,2013-02-18 21:53:00,
2013-02-18 17:02:00,17.0,14.0,29.68,North,11,2.0,14.0,86,0.00,,,0.00,,2013-02-18 22:02:00,
2013-02-18 17:12:00,17.0,14.0,29.69,NNE,32,6.0,19.0,86,0.00,,,0.00,,2013-02-18 22:12:00,
2013-02-18 17:22:00,17.0,14.0,29.69,NNE,32,6.0,19.0,86,0.00,,,0.00,,2013-02-18 22:22:00,
2013-02-18 17:33:00,17.0,14.0,29.69,NNE,29,5.0,10.0,87,0.00,,,0.00,,2013-02-18 22:33:00,
2013-02-18 17:42:00,17.0,14.0,29.69,NNE,29,5.0,10.0,87,0.00,,,0.00,,2013-02-18 22:42:00,
2013-02-18 17:53:00,17.0,14.0,29.70,North,9,4.0,10.0,86,0.00,,,0.00,,2013-02-18 22:53:00,
2013-02-18 18:02:00,16.0,13.0,29.70,NNW,344,12.0,17.0,87,0.00,,,0.00,,2013-02-18 23:02:00,
2013-02-18 18:12:00,16.0,13.0,29.70,NNW,344,12.0,17.0,87,0.00,,,0.00,,2013-02-18 23:12:00,
2013-02-18 18:22:00,15.0,11.0,29.71,NNE,21,10.0,19.0,85,0.00,,,0.00,,2013-02-18 23:22:00,
2013-02-18 18:32:00,15.0,11.0,29.71,NNW,345,5.0,19.0,85,0.00,,,0.00,,2013-02-18 23:32:00,
2013-02-18 18:42:00,15.0,11.0,29.71,NNW,345,5.0,19.0,85,0.00,,,0.00,,2013-02-18 23:42:00,
2013-02-18 18:53:00,14.0,11.0,29.71,North,357,7.0,19.0,86,0.00,,,0.00,,2013-02-18 23:53:00,
2013-02-18 19:02:00,14.0,11.0,29.72,North,352,3.0,13.0,88,0.00,,,0.00,,2013-02-19 00:02:00,
2013-02-18 19:12:00,14.0,11.0,29.72,North,352,3.0,13.0,88,0.00,,,0.00,,2013-02-19 00:12:00,
2013-02-18 19:22:00,14.0,11.0,29.72,NNE,28,11.0,16.0,87,0.00,,,0.00,,2013-02-19 00:22:00,
2013-02-18 19:33:00,13.0,10.0,29.73,NNW,348,11.0,11.0,89,0.00,,,0.00,,2013-02-19 00:33:00,
2013-02-18 19:42:00,13.0,10.0,29.73,NNW,348,11.0,11.0,89,0.00,,,0.00,,2013-02-19 00:42:00,
2013-02-18 19:54:00,12.0,9.0,29.75,NE,42,6.0,16.0,88,0.00,,,0.00,,2013-02-19 00:54:00,
2013-02-18 20:03:00,12.0,9.0,29.75,NNW,340,15.0,22.0,87,0.00,,,0.00,,2013-02-19 01:03:00,
2013-02-18 20:13:00,12.0,9.0,29.75,NNW,340,15.0,22.0,87,0.00,,,0.00,,2013-02-19 01:13:00,
2013-02-18 20:23:00,11.0,8.0,29.75,NNE,18,12.0,15.0,87,0.00,,,0.00,,2013-02-19 01:23:00,
2013-02-18 20:33:00,10.0,7.0,29.76,NNW,337,5.0,14.0,87,0.00,,,0.00,,2013-02-19 01:33:00,
2013-02-18 20:43:00,10.0,7.0,29.76,NNW,337,5.0,14.0,87,0.00,,,0.00,,2013-02-19 01:43:00,
2013-02-18 20:55:00,9.0,6.0,29.76,NNE,25,8.0,14.0,87,0.00,,,0.00,,2013-02-19 01:55:00,
2013-02-18 21:02:00,9.0,6.0,29.77,North,5,5.0,15.0,88,0.00,,,0.00,,2013-02-19 02:02:00,
2013-02-18 21:13:00,9.0,6.0,29.77,North,5,5.0,15.0,88,0.00,,,0.00,,2013-02-19 02:13:00,
2013-02-18 21:23:00,9.0,6.0,29.77,NE,54,7.0,10.0,89,0.00,,,0.00,,2013-02-19 02:23:00,
2013-02-18 21:33:00,8.0,6.0,29.78,NNW,348,9.0,13.0,90,0.00,,,0.00,,2013-02-19 02:33:00,
2013-02-18 21:42:00,8.0,6.0,29.78,NNW,348,9.0,13.0,90,0.00,,,0.00,,2013-02-19 02:42:00,
2013-02-18 21:54:00,8.0,6.0,29.78,NNE,19,12.0,16.0,90,0.00,,,0.00,,2013-02-19 02:54:00,
2013-02-18 22:05:00,8.0,5.0,29.78,North,351,0.0,13.0,89,0.00,,,0.00,,2013-02-19 03:05:00,
2013-02-18 22:13:00,8.0,6.0,29.79,NW,324,13.0,13.0,90,0.00,,,0.00,,2013-02-19 03:13:00,
2013-02-18 22:23:00,8.0,6.0,29.79,NW,324,13.0,13.0,90,0.00,,,0.00,,2013-02-19 03:23:00,
2013-02-18 22:33:00,8.0,6.0,29.80,NNE,15,9.0,12.0,90,0.00,,,0.00,,2013-02-19 03:33:00,
2013-02-18 22:43:00,8.0,6.0,29.80,NNE,15,9.0,12.0,90,0.00,,,0.00,,2013-02-19 03:43:00,
2013-02-18 22:54:00,7.0,5.0,29.80,NW,316,11.0,14.0,92,0.00,,,0.00,,2013-02-19 03:54:00,
2013-02-18 23:02:00,6.0,5.0,29.80,North,351,4.0,10.0,94,0.00,,,0.00,,2013-02-19 04:02:00,
2013-02-18 23:13:00,6.0,5.0,29.80,North,351,4.0,10.0,94,0.00,,,0.00,,2013-02-19 04:13:00,
2013-02-18 23:23:00,6.0,5.0,29.80,North,358,9.0,12.0,97,0.00,,,0.00,,2013-02-19 04:23:00,
2013-02-18 23:33:00,6.0,5.0,29.81,NNE,21,8.0,13.0,96,0.00,,,0.00,,2013-02-19 04:33:00,
2013-02-18 23:43:00,6.0,5.0,29.81,NNE,21,8.0,13.0,96,0.00,,,0.00,,2013-02-19 04:43:00,
2013-02-18 23:54:00,6.0,5.0,29.81,NNW,336,8.0,11.0,94,0.00,,,0.00,,2013-02-19 04:54:00,